Location: *
(37.4917°N, 71.5558°E)
Time: 20:01:35
(UTC+00:00)

CZ-4 R/B - Pass Details

Date: 09 April 2020
Orbit: 532 x 598 km, 97.8° (Epoch: 30 May)

Event Time Altitude Azimuth Distance (km) Brightness Sun altitude
Rises 14:43:14 0° 207° (SSW) 2,664 4.9 -12.2°
Reaches altitude 10° 14:46:07 10° 231° (SW) 1,777 4.3 -12.7°
Maximum altitude 14:48:20 15° 267° (W) 1,498 4.5 -13.1°
Drops below altitude 10° 14:50:33 10° 302° (WNW) 1,786 5.3 -13.5°
Sets 14:53:29 0° 327° (NNW) 2,687 5.8 -14.1°
